�������l�o���
Date,Time,MP-1(��Sv/h),MP-2(��Sv/h),MP-3(��Sv/h),MP-4(��Sv/h),MP-5(��Sv/h),MP-6(��Sv/h),MP-7(��Sv/h),MP-8(��Sv/h),����,����(m/s),���J
2022/07/22,00:00,0.600,0.859,0.544,1.028,0.731,0.345,0.595,0.562,��,4.7,�L
2022/07/22,00:10,0.601,0.859,0.544,1.028,0.729,0.347,0.596,0.562,��,5.6,�L
2022/07/22,00:20,0.600,0.858,0.545,1.027,0.732,0.346,0.596,0.562,��,5.5,��
2022/07/22,00:30,0.601,0.858,0.545,1.026,0.731,0.344,0.596,0.563,��,4.8,�L
2022/07/22,00:40,0.601,0.860,0.545,1.027,0.731,0.346,0.595,0.562,��,4.3,��
2022/07/22,00:50,0.601,0.859,0.544,1.026,0.729,0.344,0.597,0.563,��,5.3,�L
2022/07/22,01:00,0.602,0.860,0.544,1.028,0.730,0.346,0.595,0.562,��,4.8,��
2022/07/22,01:10,0.602,0.860,0.545,1.027,0.731,0.345,0.597,0.563,��,6.3,��
2022/07/22,01:20,0.600,0.860,0.546,1.026,0.731,0.345,0.596,0.564,��,7.2,��
2022/07/22,01:30,0.601,0.860,0.546,1.026,0.729,0.346,0.597,0.563,��,6.3,�L
2022/07/22,01:40,0.600,0.858,0.545,1.028,0.730,0.347,0.596,0.563,��,7.0,��
2022/07/22,01:50,0.600,0.860,0.543,1.026,0.728,0.345,0.596,0.562,��,6.5,�L
2022/07/22,02:00,0.602,0.858,0.543,1.028,0.728,0.346,0.596,0.563,��,6.3,�L
2022/07/22,02:10,0.600,0.861,0.547,1.027,0.730,0.344,0.595,0.563,��,5.0,��
2022/07/22,02:20,0.600,0.857,0.544,1.025,0.731,0.345,0.596,0.562,��,5.2,��
2022/07/22,02:30,0.600,0.858,0.543,1.027,0.729,0.344,0.596,0.563,��,6.8,��
2022/07/22,02:40,0.600,0.859,0.545,1.026,0.728,0.345,0.596,0.562,��,6.0,�L
2022/07/22,02:50,0.602,0.858,0.544,1.026,0.729,0.344,0.596,0.563,��,6.7,�L
2022/07/22,03:00,0.601,0.858,0.544,1.026,0.730,0.345,0.595,0.562,��쓌,5.9,�L
2022/07/22,03:10,0.600,0.859,0.545,1.027,0.728,0.346,0.596,0.563,��,5.8,��
2022/07/22,03:20,0.600,0.857,0.545,1.026,0.728,0.345,0.595,0.562,��,6.0,�L
2022/07/22,03:30,0.600,0.856,0.545,1.026,0.729,0.344,0.596,0.562,��,7.5,�L
2022/07/22,03:40,0.599,0.856,0.543,1.025,0.730,0.345,0.596,0.561,��,7.1,�L
2022/07/22,03:50,0.601,0.856,0.545,1.028,0.729,0.345,0.597,0.562,��,7.5,�L
2022/07/22,04:00,0.602,0.856,0.546,1.028,0.729,0.346,0.596,0.563,��쓌,9.6,�L
2022/07/22,04:10,0.599,0.847,0.545,1.024,0.723,0.349,0.593,0.560,��쓌,8.9,�L
2022/07/22,04:20,0.597,0.847,0.544,1.023,0.722,0.349,0.592,0.559,��쓌,9.8,�L
2022/07/22,04:30,0.598,0.843,0.543,1.022,0.721,0.351,0.593,0.558,��쓌,10.2,�L
2022/07/22,04:40,0.602,0.845,0.540,1.020,0.719,0.350,0.590,0.557,��,8.7,�L
2022/07/22,04:50,0.599,0.839,0.543,1.016,0.718,0.351,0.590,0.555,��,8.7,�L
2022/07/22,05:00,0.595,0.837,0.540,1.013,0.718,0.350,0.588,0.555,��,9.6,�L
2022/07/22,05:10,0.596,0.836,0.540,1.010,0.716,0.349,0.588,0.555,��,8.0,�L
2022/07/22,05:20,0.595,0.836,0.537,1.006,0.717,0.348,0.587,0.555,��,8.5,�L
2022/07/22,05:30,0.593,0.834,0.539,1.005,0.715,0.348,0.587,0.552,��,7.0,�L
2022/07/22,05:40,0.594,0.833,0.537,1.002,0.714,0.347,0.586,0.553,��,9.0,�L
2022/07/22,05:50,0.594,0.832,0.536,1.002,0.712,0.344,0.585,0.554,��쓌,10.0,�L
2022/07/22,06:00,0.591,0.829,0.536,1.001,0.713,0.346,0.584,0.551,��쓌,10.6,�L
2022/07/22,06:10,0.590,0.830,0.535,0.999,0.709,0.347,0.584,0.553,��쓌,10.8,�L
2022/07/22,06:20,0.591,0.827,0.535,0.996,0.710,0.346,0.584,0.551,��,8.8,�L
2022/07/22,06:30,0.588,0.827,0.533,0.996,0.709,0.345,0.584,0.551,��,10.2,�L
2022/07/22,06:40,0.588,0.826,0.533,0.997,0.706,0.342,0.582,0.551,��,9.3,�L
2022/07/22,06:50,0.586,0.823,0.531,0.994,0.708,0.343,0.582,0.550,��,7.4,�L
2022/07/22,07:00,0.586,0.823,0.530,0.993,0.706,0.341,0.581,0.551,��,8.1,�L
2022/07/22,07:10,0.584,0.822,0.529,0.994,0.704,0.341,0.581,0.551,��,7.2,�L
2022/07/22,07:20,0.584,0.822,0.529,0.995,0.706,0.341,0.580,0.550,��,8.6,�L
2022/07/22,07:30,0.584,0.822,0.529,0.994,0.706,0.339,0.582,0.550,��,8.7,��
2022/07/22,07:40,0.581,0.821,0.527,0.994,0.704,0.338,0.580,0.550,��,9.1,��
2022/07/22,07:50,0.581,0.822,0.528,0.991,0.704,0.339,0.582,0.551,��,9.0,��
2022/07/22,08:00,0.581,0.821,0.528,0.994,0.704,0.338,0.582,0.551,��,9.0,��
2022/07/22,08:10,0.582,0.822,0.528,0.995,0.704,0.339,0.581,0.551,��,8.8,��
2022/07/22,08:20,0.582,0.820,0.527,0.994,0.704,0.338,0.582,0.551,��,9.1,��
2022/07/22,08:30,0.583,0.820,0.526,0.993,0.704,0.340,0.581,0.550,��,9.8,��
2022/07/22,08:40,0.582,0.820,0.524,0.992,0.704,0.338,0.581,0.550,��,8.1,��
2022/07/22,08:50,0.581,0.820,0.524,0.994,0.704,0.338,0.581,0.550,��,7.7,��
2022/07/22,09:00,0.580,0.820,0.527,0.994,0.704,0.337,0.581,0.549,��,8.0,��
2022/07/22,09:10,0.581,0.820,0.525,0.996,0.704,0.339,0.582,0.550,��,8.9,�L
2022/07/22,09:20,0.581,0.821,0.526,0.995,0.706,0.339,0.582,0.550,��,9.0,�L
2022/07/22,09:30,0.582,0.822,0.526,0.996,0.705,0.338,0.582,0.550,��,8.4,�L
2022/07/22,09:40,0.583,0.822,0.526,0.996,0.704,0.340,0.582,0.551,��,8.1,�L
2022/07/22,09:50,0.583,0.822,0.528,0.995,0.708,0.339,0.582,0.550,��,6.5,�L
2022/07/22,10:00,0.582,0.821,0.528,0.995,0.707,0.339,0.582,0.550,��,7.1,�L
2022/07/22,10:10,0.582,0.821,0.527,0.994,0.708,0.339,0.581,0.552,��,8.3,�L
2022/07/22,10:20,0.582,0.824,0.527,0.995,0.706,0.339,0.583,0.549,��,9.2,��
2022/07/22,10:30,0.581,0.822,0.526,0.995,0.706,0.339,0.581,0.550,��,9.1,�L
2022/07/22,10:40,0.586,0.824,0.528,0.998,0.709,0.341,0.582,0.550,��,8.3,�L
2022/07/22,10:50,0.586,0.825,0.530,0.998,0.710,0.341,0.584,0.553,��,8.8,�L
2022/07/22,11:00,0.586,0.825,0.530,0.997,0.707,0.341,0.584,0.552,��,8.9,��
2022/07/22,11:10,0.585,0.823,0.530,0.997,0.710,0.341,0.583,0.552,��,9.1,�L
2022/07/22,11:20,0.585,0.825,0.530,0.999,0.709,0.339,0.583,0.553,��,9.6,�L
2022/07/22,11:30,0.584,0.827,0.531,0.998,0.710,0.341,0.583,0.551,��,8.6,�L
2022/07/22,11:40,0.586,0.825,0.531,0.997,0.709,0.339,0.584,0.551,��,8.5,�L
2022/07/22,11:50,0.585,0.828,0.532,0.997,0.710,0.341,0.584,0.551,��,7.2,��
2022/07/22,12:00,0.584,0.826,0.529,0.999,0.711,0.340,0.583,0.552,��,6.8,��
2022/07/22,12:10,0.583,0.827,0.529,0.998,0.709,0.340,0.584,0.551,��,6.2,��
2022/07/22,12:20,0.586,0.827,0.529,0.998,0.709,0.341,0.582,0.552,��,6.5,��
2022/07/22,12:30,0.583,0.829,0.529,0.997,0.709,0.340,0.583,0.551,��,6.4,��
2022/07/22,12:40,0.585,0.826,0.529,0.995,0.710,0.339,0.584,0.552,��,6.9,��
2022/07/22,12:50,0.586,0.827,0.528,0.998,0.709,0.341,0.585,0.550,��쓌,6.6,��
2022/07/22,13:00,0.587,0.828,0.530,0.996,0.710,0.342,0.584,0.552,��,9.1,��
2022/07/22,13:10,0.586,0.827,0.532,0.997,0.712,0.341,0.585,0.553,��,8.8,��
2022/07/22,13:20,0.586,0.826,0.533,0.997,0.711,0.339,0.585,0.552,��,7.5,�L
2022/07/22,13:30,0.586,0.825,0.530,0.997,0.712,0.339,0.584,0.551,��,5.7,�L
2022/07/22,13:40,0.585,0.826,0.530,0.996,0.712,0.340,0.585,0.552,��,6.6,��
2022/07/22,13:50,0.584,0.826,0.530,0.995,0.711,0.339,0.585,0.553,��,7.7,�L
2022/07/22,14:00,0.584,0.826,0.533,0.996,0.711,0.340,0.582,0.552,��,7.6,�L
2022/07/22,14:10,0.584,0.826,0.531,0.996,0.710,0.340,0.583,0.551,��쓌,8.8,�L
2022/07/22,14:20,0.583,0.823,0.532,0.998,0.710,0.340,0.581,0.551,��,7.5,�L
2022/07/22,14:30,0.585,0.820,0.531,0.995,0.706,0.340,0.582,0.549,��쓌,8.4,�L
2022/07/22,14:40,0.584,0.820,0.531,0.995,0.705,0.340,0.579,0.549,��,8.1,�L
2022/07/22,14:50,0.585,0.819,0.533,0.994,0.705,0.342,0.581,0.552,��,7.5,�L
2022/07/22,15:00,0.587,0.817,0.534,0.991,0.703,0.342,0.582,0.550,��,6.2,�L
2022/07/22,15:10,0.587,0.820,0.531,0.988,0.701,0.342,0.579,0.550,��쓌,7.4,�L
2022/07/22,15:20,0.568,0.790,0.518,0.953,0.668,0.332,0.567,0.537,-,CALM,�L
2022/07/22,15:30,0.570,0.792,0.521,0.951,0.671,0.335,0.566,0.536,��쓌,7.3,�L
2022/07/22,15:40,0.578,0.804,0.526,0.958,0.680,0.343,0.571,0.543,��,8.5,�L
2022/07/22,15:50,0.578,0.799,0.524,0.951,0.669,0.340,0.566,0.538,��쓌,11.9,�L
2022/07/22,16:00,0.576,0.800,0.523,0.952,0.675,0.344,0.569,0.541,��,6.5,�L
2022/07/22,16:10,0.579,0.806,0.524,0.959,0.678,0.343,0.571,0.544,��,6.3,�L
2022/07/22,16:20,0.580,0.805,0.523,0.961,0.680,0.343,0.571,0.545,��,5.9,�L
2022/07/22,16:30,0.580,0.808,0.523,0.963,0.677,0.344,0.572,0.544,��,5.1,�L
2022/07/22,16:40,0.579,0.808,0.523,0.963,0.679,0.343,0.573,0.546,��,5.9,�L
2022/07/22,16:50,0.576,0.809,0.522,0.965,0.680,0.344,0.574,0.545,��,5.7,�L
2022/07/22,17:00,0.578,0.808,0.523,0.966,0.679,0.342,0.573,0.545,��쐼,3.6,�L
2022/07/22,17:10,0.578,0.807,0.522,0.966,0.679,0.342,0.575,0.544,��쐼,3.9,�L
2022/07/22,17:20,0.579,0.807,0.523,0.970,0.679,0.341,0.574,0.546,��쐼,3.0,�L
2022/07/22,17:30,0.576,0.807,0.521,0.965,0.679,0.339,0.573,0.546,��,1.1,�L
2022/07/22,17:40,0.577,0.805,0.521,0.969,0.680,0.339,0.573,0.544,��쓌,1.2,��
2022/07/22,17:50,0.575,0.805,0.521,0.970,0.681,0.338,0.574,0.547,��쓌,2.2,��
2022/07/22,18:00,0.576,0.809,0.519,0.971,0.681,0.337,0.574,0.545,��,2.0,��
2022/07/22,18:10,0.575,0.807,0.521,0.967,0.680,0.337,0.574,0.546,��,0.8,��
2022/07/22,18:20,0.576,0.807,0.519,0.972,0.682,0.337,0.573,0.546,�k��,0.9,��
2022/07/22,18:30,0.576,0.806,0.519,0.972,0.683,0.336,0.574,0.545,�k�k��,1.4,��
2022/07/22,18:40,0.577,0.805,0.518,0.969,0.683,0.336,0.575,0.547,�k,2.9,��
2022/07/22,18:50,0.576,0.807,0.519,0.970,0.682,0.335,0.575,0.546,�k,4.9,��
2022/07/22,19:00,0.574,0.808,0.518,0.971,0.683,0.336,0.575,0.547,�k,5.5,��
2022/07/22,19:10,0.576,0.807,0.518,0.970,0.682,0.334,0.575,0.547,�k,7.1,��
2022/07/22,19:20,0.575,0.806,0.518,0.971,0.684,0.335,0.576,0.547,�k,6.5,��
2022/07/22,19:30,0.575,0.807,0.517,0.973,0.685,0.334,0.576,0.547,�k,7.3,��
2022/07/22,19:40,0.574,0.807,0.519,0.975,0.683,0.334,0.576,0.548,�k,7.0,��
2022/07/22,19:50,0.574,0.807,0.516,0.974,0.684,0.335,0.577,0.547,�k,6.6,��
2022/07/22,20:00,0.575,0.805,0.517,0.974,0.684,0.335,0.575,0.547,�k,7.1,��
2022/07/22,20:10,0.574,0.807,0.519,0.973,0.684,0.335,0.577,0.547,�k,6.8,��
2022/07/22,20:20,0.574,0.808,0.517,0.973,0.685,0.335,0.576,0.550,�k,5.9,��
2022/07/22,20:30,0.573,0.807,0.519,0.973,0.685,0.335,0.578,0.547,�k�k��,5.2,��
2022/07/22,20:40,0.575,0.808,0.517,0.973,0.684,0.334,0.577,0.548,�k,7.3,��
2022/07/22,20:50,0.576,0.806,0.519,0.976,0.684,0.334,0.577,0.548,�k�k��,6.5,��
2022/07/22,21:00,0.575,0.808,0.519,0.976,0.686,0.335,0.577,0.548,�k,6.5,��
2022/07/22,21:10,0.575,0.808,0.518,0.974,0.685,0.335,0.577,0.549,�k�k��,6.2,��
2022/07/22,21:20,0.575,0.806,0.519,0.977,0.686,0.334,0.576,0.549,�k,6.5,��
2022/07/22,21:30,0.576,0.809,0.517,0.977,0.685,0.335,0.577,0.547,�k�k��,4.9,��
2022/07/22,21:40,0.576,0.809,0.519,0.975,0.687,0.336,0.577,0.549,�k,3.7,��
2022/07/22,21:50,0.573,0.809,0.519,0.978,0.686,0.334,0.577,0.549,�k,2.8,��
2022/07/22,22:00,0.575,0.809,0.519,0.974,0.685,0.336,0.576,0.549,�k,3.7,��
2022/07/22,22:10,0.575,0.812,0.517,0.976,0.686,0.336,0.576,0.549,�k,2.3,��
2022/07/22,22:20,0.575,0.808,0.520,0.976,0.686,0.336,0.577,0.548,�k,2.6,��
2022/07/22,22:30,0.576,0.809,0.520,0.977,0.688,0.335,0.577,0.548,�k,2.6,��
2022/07/22,22:40,0.576,0.810,0.520,0.976,0.686,0.336,0.576,0.549,�k,3.4,��
2022/07/22,22:50,0.577,0.809,0.521,0.976,0.690,0.336,0.576,0.551,�k,4.0,��
2022/07/22,23:00,0.576,0.810,0.520,0.977,0.689,0.337,0.577,0.549,�k,3.4,��
2022/07/22,23:10,0.576,0.811,0.521,0.975,0.686,0.336,0.578,0.551,�k,3.8,��
2022/07/22,23:20,0.577,0.811,0.521,0.980,0.687,0.336,0.577,0.551,�k��,0.6,��
2022/07/22,23:30,0.576,0.809,0.521,0.976,0.691,0.337,0.577,0.550,-,CALM,��
2022/07/22,23:40,0.576,0.812,0.520,0.976,0.689,0.335,0.576,0.550,-,CALM,��
2022/07/22,23:50,0.574,0.810,0.521,0.976,0.688,0.336,0.578,0.549,-,CALM,��
